Simultaneous Nadir Overpasses (SNOs) Predictions

Prediction of SNOs between FY3D and NOAA-19 Satellite Orbit:

Table of predicted SNOs for the next 14.0 days since TLE Epoch: 2/3/2024
Index Date (FY3D) Time (FY3D) Lat,Lon (FY3D) SZA (FY3D ) Date (NOAA-19) Time (NOAA-19) Lat,Lon (NOAA-19) SZA (NOAA-19 ) Distance(km) Time Diff (sec)
1 02/11/2024 23:50:13 75.92, 179.56 89.86 02/11/2024 23:49:03 75.92, 177.81 89.92 47.20 70
2 02/12/2024 00:41:04 -76.17, -14.01 89.88 02/12/2024 00:39:58 -76.17, -14.00 89.87 0.47 66
3 02/12/2024 01:31:50 76.19, 153.22 90.14 02/12/2024 01:30:55 76.20, 153.36 90.15 3.76 55
4 02/12/2024 02:22:35 -76.17, -39.39 89.91 02/12/2024 02:21:56 -76.19, -39.42 89.88 2.60 39
5 02/12/2024 03:13:21 76.19, 127.85 90.11 02/12/2024 03:12:54 76.17, 127.77 90.10 2.78 27
6 02/12/2024 04:04:07 -76.21, -64.92 89.88 02/12/2024 04:03:54 -76.21, -64.85 89.89 1.90 13
7 02/12/2024 04:54:52 76.19, 102.48 90.09 02/12/2024 04:54:52 76.19, 102.35 90.09 3.47 0
8 02/12/2024 05:45:38 -76.21, -90.29 89.91 02/12/2024 05:45:52 -76.23, -90.28 89.89 1.68 14
9 02/12/2024 06:36:24 76.23, 76.94 90.11 02/12/2024 06:36:50 76.21, 76.93 90.09 2.48 26
10 02/12/2024 07:27:10 -76.25,-115.83 89.88 02/12/2024 07:27:50 -76.24,-115.70 89.90 3.52 40
11 02/12/2024 08:17:55 76.23, 51.57 90.08 02/12/2024 08:18:48 76.23, 51.50 90.08 1.84 53
12 02/12/2024 09:08:41 -76.25,-141.20 89.91 02/12/2024 09:09:48 -76.26,-141.13 89.91 2.07 67
13 02/12/2024 09:59:31 76.45, 25.37 90.31 02/12/2024 10:00:42 76.42, 26.75 90.23 36.35 71



Historial Predications of SNOs between FY3D and NOAA-19
